Seattle Boeing, WA
on Thursday, November 15, 2012

Thursday
Previous Day Next Day
Daily Summary
 ActualAverage (KSEA)Record (KSEA)
Temperature
Mean Temperature °F 46°F  
Max Temperature 48°F 51°F 62°F (2001)
Min Temperature 37°F 40°F 6°F (1955)
Degree Days
Heating Degree Days 22 19  
Month to date heating degree days 268  
Since 1 July heating degree days 865  
Cooling Degree Days 0 0  
Month to date cooling degree days 0  
Year to date cooling degree days 189  
Moisture
Dew Point 39°F   
Average Humidity 88    
Maximum Humidity 100    
Minimum Humidity 68    
Precipitation
Precipitation 0.00 in 0.23 in 1.09 in (2007)
Month to date precipitation 3.19  
Year to date precipitation 28.76  
Snow
Snow 0.00 in in 0.20 in (1975)
Month to date snowfall  
Since 1 July snowfall  
Snow Depth in   
Wind
Wind Speed 2 mph   
Max Wind Speed 9 mph   
Max Gust Speed mph   
Visibility 8 miles   
Events Fog   

Key: T is trace of precipitation, MM is missing value
Source: NWS Daily Summary
Time(PST)TemperatureDew PointHumidity Pressure Visibility Wind DirectionWind SpeedGust SpeedPrecipitationEvents Conditions
12:01 AM 42.8°F 41.0°F 93% 30.28 in 8.0 miles SE 3.5 mph - N/A   Scattered Clouds
12:11 AM 41.0°F 39.2°F 93% 30.27 in 7.0 miles Calm Calm - N/A   Mostly Cloudy
12:53 AM 43.0°F 42.1°F 97% 30.26 in 7.0 miles Calm Calm - N/A   Overcast
1:01 AM 42.8°F 42.8°F 100% 30.26 in 2.0 miles Calm Calm - N/A   Overcast
1:26 AM 42.8°F 42.8°F 100% 30.25 in 0.5 miles Calm Calm - N/A Fog Fog
1:53 AM 43.0°F 41.0°F 93% 30.25 in 0.8 miles Calm Calm - N/A Fog Fog
2:00 AM 42.8°F 41.0°F 93% 30.25 in 6.0 miles Variable 3.5 mph - N/A Fog Fog
2:53 AM 41.0°F 39.9°F 96% 30.23 in 10.0 miles Calm Calm - N/A Fog Fog
3:48 AM 42.8°F 39.2°F 87% 30.21 in 10.0 miles Calm Calm - N/A Fog Fog
3:53 AM 42.1°F 39.0°F 89% 30.21 in 10.0 miles Calm Calm - N/A Fog Fog
4:46 AM 41.0°F 37.4°F 87% 30.20 in 10.0 miles Calm Calm - N/A Fog Fog
4:53 AM 41.0°F 37.9°F 89% 30.20 in 10.0 miles Calm Calm - N/A Fog Fog
5:51 AM 39.2°F 37.4°F 93% 30.18 in 10.0 miles Calm Calm - N/A Fog Fog
5:53 AM 39.9°F 37.0°F 89% 30.18 in 10.0 miles Calm Calm - N/A   Mostly Cloudy
6:53 AM 39.9°F 37.0°F 89% 30.17 in 10.0 miles Calm Calm - N/A   Scattered Clouds
7:53 AM 39.9°F 37.0°F 89% 30.16 in 7.0 miles Variable 3.5 mph - N/A   Mostly Cloudy
8:28 AM 39.2°F 37.4°F 93% 30.14 in 10.0 miles NNW 4.6 mph - N/A   Mostly Cloudy
8:48 AM 41.0°F 37.4°F 87% 30.14 in 10.0 miles North 3.5 mph - N/A   Mostly Cloudy
8:53 AM 42.1°F 37.0°F 82% 30.14 in 10.0 miles Calm Calm - N/A   Mostly Cloudy
9:29 AM 42.8°F 37.4°F 81% 30.13 in 10.0 miles NE 3.5 mph - N/A   Scattered Clouds
9:53 AM 44.1°F 37.9°F 79% 30.11 in 10.0 miles NNW 4.6 mph - N/A   Scattered Clouds
10:53 AM 45.0°F 39.0°F 80% 30.09 in 10.0 miles Variable 4.6 mph - N/A   Scattered Clouds
11:53 AM 46.0°F 39.9°F 79% 30.05 in 9.0 miles NW 9.2 mph - N/A   Partly Cloudy
12:53 PM 48.0°F 39.9°F 74% 30.03 in 10.0 miles WNW 5.8 mph - N/A   Clear
1:53 PM 48.9°F 39.9°F 71% 30.02 in 10.0 miles Calm Calm - N/A   Clear
2:53 PM 48.0°F 39.0°F 71% 30.01 in 10.0 miles Variable 5.8 mph - N/A   Clear
3:53 PM 48.0°F 37.9°F 68% 30.01 in 10.0 miles NW 4.6 mph - N/A   Clear
4:53 PM 46.0°F 39.9°F 79% 30.00 in 10.0 miles WNW 4.6 mph - N/A   Clear
5:53 PM 45.0°F 39.9°F 82% 29.99 in 10.0 miles Calm Calm - N/A   Partly Cloudy
6:53 PM 45.0°F 39.9°F 82% 29.99 in 10.0 miles Calm Calm - N/A   Mostly Cloudy
7:23 PM 42.8°F 39.2°F 87% 29.98 in 10.0 miles SE 4.6 mph - N/A   Mostly Cloudy
7:53 PM 42.1°F 39.0°F 89% 29.98 in 9.0 miles SE 4.6 mph - N/A   Mostly Cloudy
8:03 PM 42.8°F 39.2°F 87% 29.97 in 8.0 miles SE 4.6 mph - N/A   Scattered Clouds
8:53 PM 41.0°F 39.0°F 93% 29.97 in 8.0 miles SE 3.5 mph - N/A   Scattered Clouds
9:53 PM 37.9°F 37.0°F 97% 29.96 in 6.0 miles SE 6.9 mph - N/A   Scattered Clouds
10:46 PM 37.4°F 35.6°F 93% 29.96 in 0.2 miles SE 8.1 mph - N/A Fog Fog
10:53 PM 37.0°F 36.0°F 96% 29.96 in 0.2 miles SE 9.2 mph - N/A Fog Fog
11:10 PM 37.4°F 37.4°F 100% 29.96 in 0.2 miles SSE 8.1 mph - N/A Fog Fog
11:53 PM 39.0°F 39.0°F 100% 29.95 in 0.2 miles SE 3.5 mph - N/A Fog Fog
Moon Phase
Nov. 15 Nov. 20 Nov. 28 Dec. 06 Dec. 13
Sunrise:07:15 AM (PST) Moon Rise:09:21 AM (PST)11/15
Sunset:04:32 PM (PST) Moon Set:06:24 PM (PST)11/15

Copyright © 2014 The Weather Underground, Inc.